Vertical_Velocity
2 -2 -1 -1 -3 -3 -1 -0 -0 -0 -1 0 -0 0 -0 2 2 -0 0 2 -2 -5 3 -6 5 5 -1 2 3 5 3 -7 3 1 1 -1 -2 -4 -0 -2 -0 1 -2 -6 5 2 -21 1 1 -6 4 4 2 2
1 1 -1 -0 -1 -3 -2 -3 1 3 -2 -3 1 -2 1 1 3 1 1 -0 -0 -1 -5 -0 -4 2 4 4 2 -4 -2 15 6 -2 1 2 1 3 -1 -3 3 -8 -6 -5 -11 -12 6 7 5 12 -3 2 3 6
-1 3 -2 -4 -2 -2 -4 -2 -4 -0 1 -0 -3 -0 0 -3 -1 3 2 -0 1 -1 -11 -6 1 3 0 0 11 -3 -2 14 -5 14 5 3 -6 4 1 -7 6 -10 6 -16 12 5 -9 2 9 -2 10 3 -2 2
-1 0 1 -0 1 -3 1 -3 -5 -2 -0 1 -1 -2 1 4 -3 1 1 -3 2 3 -1 -20 0 -4 2 6 6 10 3 2 4 6 2 8 2 3 -11 2 -2 12 3 3 -9 -31 25 1 3 8 -0 0 0 6
-2 -1 3 -1 1 -3 -2 -1 -0 -1 -1 -4 -1 -4 2 2 8 5 -4 3 -2 2 -1 3 -16 -6 0 1 -1 1 1 -3 1 10 4 -3 -2 9 -0 8 -17 3 -5 -3 -20 -14 19 -28 10 2 -5 -1 5 0
-1 2 0 2 0 1 -4 0 0 1 1 -5 -4 -3 -5 -1 2 2 1 -5 4 -1 -3 -2 -5 -5 -16 4 2 2 2 4 3 -1 1 4 -6 16 3 -7 -11 -12 13 16 -0 3 0 2 -34 15 -0 2 -1 -7
-5 -3 -2 -4 -2 -1 2 -3 -4 -1 -0 2 -1 -4 -2 -2 -1 -6 -0 -5 -4 3 6 4 -8 -8 -2 8 -2 -2 2 1 9 5 -12 -2 2 12 -5 0 -29 -3 -0 11 8 6 -8 7 -8 -11 5 -3 1 1
-0 -5 0 -2 -4 -2 5 -0 -2 -1 3 -2 -3 0 -2 1 -7 -8 4 7 3 5 6 4 0 -3 -8 -9 -4 -7 -3 3 -4 6 -3 -3 7 10 -28 -25 2 4 7 -2 -0 2 -1 -1 -3 5 -2 -0 -2 -2
-2 -2 -3 2 1 1 -1 -3 -3 4 7 -4 0 -4 -7 1 -5 2 0 1 -2 8 7 1 1 -2 -4 -1 0 -6 0 -11 -1 -5 -1 13 -0 -28 -28 -7 7 16 5 -15 -8 2 4 -2 2 -1 -0 7 -4 -1
-1 6 -5 3 2 2 3 -3 -3 1 -4 0 -2 -4 -6 -5 9 -1 -15 3 -1 -2 4 -17 -8 -13 16 6 -2 4 0 -4 -7 -9 14 0 -40 -13 -7 6 8 3 -1 1 -6 -6 10 2 -4 5 1 -1 -3 2
2 -0 2 -2 -2 -1 11 -6 2 2 7 -7 -6 1 3 -6 -9 1 -1 1 3 4 -10 -11 1 -2 8 1 11 13 4 6 -1 -3 9 -6 -47 -15 15 20 -5 -2 0 2 3 0 -3 0 -3 -3 9 -1 -2 -0
-4 2 -5 3 0 7 -4 3 0 10 -2 -3 1 -8 -5 -2 -2 8 1 2 -6 -4 -6 -10 -2 -0 1 4 13 5 5 10 -2 4 4 -10 -32 7 -0 -2 5 2 -0 4 3 4 2 2 2 -1 -3 1 -2 -1
-2 5 -3 -0 -1 1 7 -8 1 -2 10 -5 3 -3 -0 -3 9 7 3 6 -11 -5 -3 1 -4 -2 -7 8 18 -1 4 2 6 3 -11 -30 13 8 -6 5 5 7 7 1 0 1 6 1 -3 -0 -4 -7 -3 4
0 -2 2 9 1 -1 1 -0 -3 3 4 1 6 5 -6 1 1 -19 -14 1 3 -6 1 4 4 6 2 5 8 5 10 6 5 -1 -28 5 -5 2 -0 6 10 11 4 6 9 4 2 2 -3 -5 -5 -2 -6 -7
-1 -0 1 -6 1 -1 -3 -3 8 12 9 -3 3 -5 -2 2 -3 3 0 -5 4 -0 14 11 3 4 0 2 1 4 4 0 2 -9 1 2 1 5 6 1 3 2 -2 1 -7 12 4 1 3 0 -2 -5 -4 1
-2 -5 -7 1 2 1 1 4 6 17 7 1 -8 -0 8 3 6 -3 -6 -15 8 14 13 5 7 1 -7 15 9 -3 15 2 -1 3 5 4 36 18 50 5 2 5 7 8 -8 -8 7 6 4 -2 -6 -8 -10 1
8 -19 15 1 -2 -0 6 7 17 10 3 -1 -17 -2 -5 -8 -3 -5 3 -5 5 10 2 21 4 -9 1 2 -9 -1 -5 11 19 1 -0 6 4 3 -23 2 10 2 -0 4 -11 7 8 5 3 -5 -1 3 -9 -5
-16 3 2 -0 1 15 11 12 19 3 -15 -8 -10 6 -7 -8 6 -8 -2 1 14 8 11 4 15 1 -1 9 6 -11 7 8 11 -3 -14 -11 -4 -7 -4 -15 -1 1 -2 -16 -12 -6 -2 5 0 1 -0 -2 -5 -4
3 4 6 2 3 14 10 -8 6 -9 -17 1 -12 -5 -5 -9 -5 -3 -11 -7 7 19 19 8 28 18 0 -4 -13 -6 24 26 4 3 -9 -1 -11 -3 -2 -1 -2 0 2 -4 -3 -1 0 -1 -7 -5 -3 -4 -10 2
-1 4 3 8 14 14 15 -8 2 3 -11 -22 0 -3 1 -5 7 5 3 2 14 23 4 -12 -18 -9 -5 -18 10 2 11 14 9 -5 1 3 -3 -3 -3 -5 -3 2 4 0 -2 -3 -5 -1 -0 0 -1 -2 -2 1
7 -1 9 10 23 15 0 -7 -1 -8 -1 -4 -1 5 0 -1 -1 -4 -6 28 9 -13 -19 -7 -7 -8 7 -5 -6 4 -6 7 4 16 -9 -20 3 -1 -4 -3 3 4 -2 -2 -1 -2 -0 -1 -4 5 -1 2 -0 0
-5 12 7 23 22 11 13 4 0 2 6 1 4 9 -0 -8 -7 -10 10 4 -9 -10 -6 -1 -11 -6 -5 -5 -10 3 0 11 -2 -8 2 5 -14 3 2 2 -4 -1 3 1 -0 -0 -2 6 3 1 3 2 -1 1
17 5 11 12 16 4 -7 6 0 -1 -6 -29 2 5 -15 -16 -12 16 -2 -7 -27 -17 -10 -0 -2 7 -2 -5 12 -2 6 -3 -9 -5 3 -1 -1 -9 -4 -4 7 -3 -8 -3 5 1 -3 4 5 -4 -3 1 -2 -1
21 21 16 14 3 -7 -8 -9 -8 6 -8 -3 -7 -7 -14 0 9 4 -26 -13 -19 2 -3 -11 16 -3 6 5 -3 4 -2 20 -4 -8 0 9 -7 -6 10 -5 2 2 4 -6 8 5 -4 -8 0 2 -2 -5 -2 -3
53 20 5 6 2 -7 -6 -9 -4 3 -25 4 16 -0 -27 18 2 3 -14 -43 -14 -9 2 12 11 7 -0 -1 1 -2 9 12 16 11 3 6 2 5 -5 1 -8 -5 8 2 -3 -6 -4 -2 -2 -0 1 1 0 1
-0 -16 -2 -8 -11 -2 -14 -10 -17 -9 13 9 -15 -8 4 12 9 -22 -52 -12 3 4 2 6 14 11 -2 5 -6 -1 -6 20 -0 -16 -17 22 6 -4 -8 -3 -9 -14 26 6 -13 -6 -2 2 0 2 -1 3 4 -1
-3 -12 -6 2 1 4 6 -7 11 8 -7 -10 -11 18 22 1 -12 -54 2 13 7 4 7 4 6 -0 -1 2 5 3 8 11 5 -0 -2 6 4 4 -3 -3 -12 -11 15 6 -9 -7 -4 -1 -1 2 -2 1 4 2
-12 1 -6 -7 -1 10 13 0 -3 3 -7 4 15 -2 -4 -21 -50 -11 -3 2 2 3 -1 -2 6 6 2 3 5 -2 -4 7 8 -0 -7 -6 -1 3 1 -0 -17 1 11 4 -4 -8 -4 -0 -0 0 -1 -3 2 3
-11 -16 2 -10 11 5 -12 -9 -14 -10 19 16 2 -13 -15 -1 -12 -12 -6 9 2 1 -6 -7 -9 7 -9 -8 -7 -1 7 4 -3 -7 -1 -5 -9 -15 8 -5 2 9 9 -1 2 -1 -3 -4 0 -1 2 -3 -1 -1
-15 4 -1 -4 7 -23 -31 26 -17 18 17 4 10 -6 -4 -18 -7 15 -10 -8 -10 -10 -4 -3 -11 6 -8 6 -7 -4 10 9 2 -0 -5 -9 -9 3 -6 -13 -6 9 2 -6 -4 -0 -1 -3 1 2 -0 -2 -1 -0
14 8 -1 2 -22 -6 10 13 3 -2 -2 -0 16 -2 -16 -7 -17 -5 -3 -1 -2 -4 -1 -10 -3 9 8 -2 -4 -7 -18 3 -2 3 3 -2 -4 -4 -3 -2 8 -1 -8 -5 -2 -3 -1 3 2 1 0 2 4 4
5 -4 11 -7 -20 12 5 1 4 1 -0 0 -14 -0 4 0 -20 -23 -10 20 3 3 3 18 8 -12 -2 -2 -6 -2 3 -2 -2 -2 2 2 -1 -0 -0 3 3 -4 -7 -4 -1 -1 3 -1 2 1 2 8 3 0
1 2 2 2 -6 -6 7 19 -5 -11 -0 -3 -4 7 2 6 -25 -24 10 23 15 4 -6 -10 -4 -3 -1 5 3 2 6 4 4 -0 -4 -3 -1 -1 -1 1 1 -1 -1 -1 -4 -2 -1 2 2 2 7 5 5 4
Height
3091 3092 3093 3093 3093 3093 3093 3093 3092 3091 3091 3092 3090 3089 3088 3086 3085 3084 3085 3083 3081 3078 3080 3079 3078 3078 3079 3079 3078 3079 3079 3077 3075 3074 3073 3070 3067 3069 3067 3065 3065 3065 3066 3066 3072 3070 3052 3043 3043 3046 3045 3042 3039 3037
3080 3081 3081 3083 3083 3083 3083 3083 3084 3083 3083 3082 3082 3081 3080 3079 3078 3077 3077 3077 3074 3072 3072 3073 3074 3074 3073 3073 3072 3071 3073 3073 3071 3069 3068 3066 3063 3059 3059 3060 3059 3061 3058 3057 3055 3045 3043 3040 3041 3041 3037 3033 3032 3028
3069 3071 3072 3072 3073 3073 3073 3073 3073 3072 3073 3073 3073 3074 3073 3072 3072 3071 3071 3070 3068 3063 3061 3062 3064 3064 3065 3065 3065 3063 3066 3066 3062 3063 3060 3059 3057 3056 3052 3047 3048 3049 3051 3046 3042 3033 3035 3035 3033 3032 3027 3024 3022 3017
3060 3062 3063 3063 3064 3063 3063 3063 3063 3063 3063 3064 3064 3065 3066 3065 3065 3064 3063 3064 3062 3058 3049 3049 3054 3054 3054 3056 3059 3056 3056 3056 3055 3053 3050 3048 3046 3045 3041 3042 3038 3043 3039 3034 3027 3027 3025 3025 3023 3022 3019 3016 3013 3010
3049 3052 3053 3054 3054 3055 3055 3055 3055 3055 3055 3056 3056 3057 3057 3057 3057 3056 3054 3056 3057 3057 3043 3037 3040 3048 3048 3047 3048 3047 3046 3045 3044 3043 3039 3035 3036 3038 3030 3028 3019 3034 3030 3024 3012 3021 3015 3011 3011 3009 3005 3004 3001 2998
3041 3042 3043 3045 3045 3046 3047 3048 3049 3048 3047 3047 3048 3049 3049 3049 3048 3048 3045 3045 3050 3047 3039 3027 3023 3026 3034 3034 3036 3038 3038 3036 3033 3032 3029 3025 3027 3031 3018 3004 3007 3025 3020 3017 3006 3009 3004 2998 3001 2997 2990 2988 2987 2985
3032 3034 3035 3036 3037 3038 3038 3040 3041 3041 3040 3040 3040 3040 3041 3039 3039 3040 3043 3040 3040 3041 3035 3025 3019 3016 3020 3023 3026 3025 3025 3024 3024 3021 3016 3017 3018 3019 3007 2990 2998 3011 3009 3004 2998 2994 2986 2989 2978 2981 2979 2978 2975 2973
3021 3024 3025 3027 3028 3029 3029 3029 3031 3031 3031 3031 3032 3033 3033 3032 3030 3031 3036 3032 3033 3033 3029 3023 3015 3015 3017 3018 3020 3020 3018 3016 3012 3010 3007 3005 3008 3005 2992 2992 2998 2997 2995 2991 2988 2983 2976 2972 2970 2966 2963 2960 2958 2958
3009 3011 3015 3017 3018 3018 3019 3019 3022 3023 3022 3022 3023 3023 3024 3024 3022 3023 3025 3023 3023 3025 3018 3013 3012 3012 3009 3012 3011 3012 3010 3007 3005 3000 3001 3000 2993 2985 2987 2988 2988 2985 2979 2977 2976 2973 2971 2966 2961 2960 2955 2953 2948 2948
3000 3000 3005 3007 3009 3009 3010 3010 3013 3013 3013 3012 3015 3014 3014 3015 3016 3014 3012 3012 3007 3005 3005 3002 3006 3007 3007 3005 3003 3006 2998 2996 2992 2992 2990 2983 2976 2982 2981 2978 2975 2972 2970 2965 2961 2966 2962 2958 2955 2950 2947 2944 2940 2938
2990 2992 2995 2997 2998 3001 2999 3001 3003 3004 3004 3004 3006 3007 3007 3005 3008 3007 3002 2999 2999 2996 2992 2994 2997 2996 2997 2996 2994 2994 2988 2985 2982 2981 2979 2972 2969 2972 2972 2967 2963 2963 2960 2959 2956 2956 2954 2948 2945 2943 2940 2936 2934 2932
2982 2984 2986 2988 2990 2991 2991 2993 2995 2995 2995 2998 2999 2997 2998 2998 2999 2998 2988 2987 2989 2991 2988 2990 2991 2990 2989 2987 2987 2983 2979 2976 2972 2970 2967 2962 2966 2965 2963 2961 2957 2955 2954 2952 2951 2951 2948 2945 2940 2936 2933 2930 2928 2925
2974 2975 2978 2980 2980 2984 2984 2985 2988 2989 2988 2990 2993 2990 2990 2990 2987 2980 2976 2976 2983 2984 2985 2985 2985 2984 2983 2982 2978 2976 2970 2967 2964 2960 2957 2956 2958 2957 2955 2953 2951 2948 2947 2945 2944 2944 2941 2937 2935 2931 2927 2925 2922 2920
2965 2968 2970 2971 2973 2975 2978 2979 2982 2984 2984 2985 2986 2983 2976 2973 2969 2967 2970 2976 2979 2979 2979 2979 2978 2978 2976 2975 2971 2967 2965 2961 2955 2951 2948 2951 2947 2946 2944 2944 2943 2940 2937 2937 2938 2937 2934 2930 2928 2925 2922 2919 2917 2915
2957 2960 2961 2964 2966 2968 2970 2975 2977 2976 2975 2975 2977 2969 2960 2959 2964 2965 2968 2971 2974 2974 2973 2972 2970 2970 2968 2965 2963 2960 2955 2948 2945 2943 2943 2943 2941 2939 2937 2936 2934 2933 2931 2931 2930 2928 2926 2925 2923 2920 2917 2914 2913 2911
2949 2951 2953 2957 2959 2961 2963 2967 2968 2968 2963 2963 2959 2956 2952 2955 2957 2959 2963 2966 2968 2968 2965 2964 2963 2961 2959 2954 2950 2947 2941 2937 2940 2940 2940 2939 2935 2931 2927 2929 2927 2925 2925 2923 2924 2924 2922 2919 2917 2916 2915 2913 2910 2910
2940 2940 2947 2949 2951 2953 2956 2957 2957 2953 2951 2947 2942 2946 2948 2949 2950 2954 2955 2957 2958 2958 2956 2956 2953 2951 2949 2942 2939 2940 2935 2936 2934 2932 2933 2932 2929 2924 2920 2922 2922 2920 2918 2919 2919 2918 2916 2915 2913 2911 2910 2909 2907 2907
2929 2934 2937 2940 2943 2945 2945 2944 2943 2939 2937 2936 2936 2937 2941 2941 2941 2943 2944 2949 2948 2946 2947 2945 2943 2938 2936 2930 2924 2931 2930 2926 2926 2926 2924 2923 2921 2918 2917 2915 2915 2915 2915 2914 2912 2910 2910 2907 2904 2903 2902 2901 2898 2898
2921 2924 2928 2931 2934 2934 2933 2932 2933 2928 2926 2927 2928 2930 2930 2930 2930 2932 2934 2934 2934 2935 2934 2932 2928 2919 2917 2920 2922 2921 2920 2918 2916 2916 2916 2916 2915 2913 2909 2906 2903 2903 2902 2901 2900 2899 2897 2895 2893 2891 2891 2890 2888 2886
2912 2915 2919 2923 2924 2924 2923 2922 2921 2919 2916 2918 2919 2919 2919 2918 2920 2921 2921 2922 2922 2921 2919 2915 2911 2910 2910 2911 2912 2910 2908 2908 2907 2905 2904 2904 2903 2901 2898 2897 2895 2893 2889 2886 2885 2885 2884 2882 2881 2878 2876 2874 2871 2871
2903 2906 2910 2912 2913 2913 2912 2911 2910 2909 2909 2908 2910 2910 2908 2907 2907 2908 2908 2909 2906 2904 2902 2902 2901 2900 2901 2900 2900 2898 2896 2895 2893 2894 2892 2890 2891 2889 2887 2886 2884 2881 2878 2876 2874 2873 2871 2869 2868 2866 2863 2862 2860 2857
2894 2899 2900 2901 2901 2902 2901 2901 2902 2902 2902 2900 2900 2900 2898 2898 2898 2897 2899 2896 2892 2892 2893 2893 2891 2889 2886 2884 2883 2885 2885 2884 2882 2881 2881 2880 2878 2877 2875 2874 2871 2869 2867 2865 2863 2859 2857 2856 2854 2853 2852 2851 2849 2846
2887 2889 2890 2892 2893 2892 2891 2892 2893 2894 2892 2891 2892 2890 2888 2887 2887 2888 2883 2882 2882 2883 2882 2880 2877 2876 2873 2872 2871 2869 2869 2871 2869 2870 2870 2870 2869 2869 2867 2866 2864 2859 2857 2855 2852 2847 2845 2845 2843 2841 2840 2838 2836 2835
2878 2880 2881 2881 2881 2881 2881 2882 2882 2882 2880 2879 2878 2877 2876 2876 2876 2873 2867 2867 2868 2869 2869 2867 2865 2863 2861 2860 2858 2857 2858 2859 2856 2856 2858 2857 2856 2857 2856 2855 2854 2851 2847 2843 2839 2836 2835 2834 2832 2829 2828 2827 2826 2823
2871 2870 2871 2869 2870 2872 2872 2871 2870 2870 2868 2867 2868 2867 2866 2867 2864 2861 2857 2856 2856 2856 2856 2855 2854 2853 2850 2848 2846 2844 2844 2843 2842 2842 2843 2843 2844 2844 2845 2844 2842 2842 2838 2833 2831 2828 2825 2823 2821 2819 2818 2817 2815 2813
2857 2858 2858 2856 2859 2861 2859 2859 2859 2856 2858 2859 2858 2856 2856 2855 2853 2847 2844 2842 2844 2845 2844 2843 2842 2841 2838 2835 2833 2833 2832 2831 2829 2827 2831 2832 2833 2832 2832 2831 2831 2831 2830 2827 2823 2819 2816 2814 2811 2809 2808 2807 2806 2802
2845 2843 2846 2848 2848 2850 2850 2849 2850 2850 2848 2846 2844 2844 2845 2843 2840 2836 2834 2835 2835 2834 2834 2834 2832 2830 2827 2826 2825 2823 2822 2821 2820 2818 2819 2819 2820 2821 2820 2819 2819 2820 2818 2817 2814 2811 2806 2804 2802 2800 2798 2796 2794 2791
2832 2835 2837 2842 2840 2840 2839 2841 2841 2838 2837 2836 2836 2835 2834 2830 2827 2827 2826 2825 2825 2824 2822 2821 2820 2818 2816 2815 2814 2812 2811 2810 2810 2809 2808 2808 2809 2810 2810 2809 2808 2808 2807 2806 2804 2802 2798 2795 2792 2791 2788 2785 2782 2780
2823 2827 2831 2830 2831 2831 2830 2829 2827 2826 2826 2827 2825 2823 2819 2818 2817 2816 2816 2815 2814 2811 2809 2808 2806 2806 2804 2803 2802 2801 2801 2800 2799 2797 2795 2794 2796 2797 2800 2799 2797 2795 2795 2794 2793 2790 2788 2786 2783 2781 2778 2775 2772 2768
2814 2819 2820 2820 2820 2819 2818 2818 2818 2818 2817 2816 2814 2812 2809 2806 2805 2806 2804 2803 2801 2798 2797 2795 2793 2792 2790 2789 2787 2787 2787 2787 2786 2784 2781 2780 2781 2783 2783 2783 2782 2782 2782 2781 2780 2780 2778 2777 2775 2773 2769 2766 2762 2758
2807 2809 2809 2809 2809 2808 2809 2809 2808 2807 2806 2804 2803 2801 2797 2795 2793 2792 2790 2789 2788 2786 2783 2781 2780 2780 2778 2777 2774 2772 2770 2773 2771 2770 2769 2768 2767 2766 2767 2767 2765 2765 2767 2767 2767 2767 2767 2767 2766 2764 2762 2759 2756 2754
2799 2800 2800 2800 2801 2802 2801 2798 2796 2795 2793 2792 2791 2790 2787 2783 2779 2778 2779 2778 2775 2771 2770 2768 2766 2764 2764 2761 2759 2757 2755 2754 2755 2755 2754 2753 2752 2752 2751 2750 2749 2750 2751 2752 2754 2756 2757 2758 2758 2756 2755 2754 2753 2752
2791 2791 2792 2792 2792 2792 2792 2790 2787 2785 2784 2782 2781 2780 2777 2774 2768 2766 2767 2769 2766 2762 2758 2756 2753 2750 2748 2747 2745 2743 2742 2741 2741 2741 2740 2739 2738 2738 2737 2737 2737 2738 2739 2741 2744 2746 2748 2749 2750 2750 2750 2750 2751 2750